Year,Month,Day,Hour,Minute,Value (Times are PST for temperature in C)
2008,10,21,00,00,7.90
2008,10,21,00,01,7.80
2008,10,21,00,02,7.80
2008,10,21,00,03,7.80
2008,10,21,00,04,7.80
2008,10,21,00,05,7.80
2008,10,21,00,06,7.80
2008,10,21,00,07,7.90
2008,10,21,00,08,7.90
2008,10,21,00,09,7.90
2008,10,21,00,10,7.90
2008,10,21,00,11,8.00
2008,10,21,00,12,8.00
2008,10,21,00,13,8.00
2008,10,21,00,14,8.00
2008,10,21,00,15,8.00
2008,10,21,00,16,8.10
2008,10,21,00,17,8.10
2008,10,21,00,18,8.10
2008,10,21,00,19,8.10
2008,10,21,00,20,8.10
2008,10,21,00,21,8.10
2008,10,21,00,22,8.10
2008,10,21,00,23,8.10
2008,10,21,00,24,8.10
2008,10,21,00,25,8.10
2008,10,21,00,26,8.10
2008,10,21,00,27,8.10
2008,10,21,00,28,8.10
2008,10,21,00,29,8.10
2008,10,21,00,30,8.10
2008,10,21,00,31,8.10
2008,10,21,00,32,8.10
2008,10,21,00,33,8.10
2008,10,21,00,34,8.10
2008,10,21,00,35,8.10
2008,10,21,00,36,8.20
2008,10,21,00,37,8.20
2008,10,21,00,38,8.20
2008,10,21,00,39,8.30
2008,10,21,00,40,8.30
2008,10,21,00,41,8.30
2008,10,21,00,42,8.30
2008,10,21,00,43,8.30
2008,10,21,00,44,8.30
2008,10,21,00,45,8.30
2008,10,21,00,46,8.30
2008,10,21,00,47,8.30
2008,10,21,00,48,8.30
2008,10,21,00,49,8.30
2008,10,21,00,50,8.30
2008,10,21,00,51,8.20
2008,10,21,00,52,8.20
2008,10,21,00,53,8.20
2008,10,21,00,54,8.20
2008,10,21,00,55,8.20
2008,10,21,00,56,8.10
2008,10,21,00,57,8.10
2008,10,21,00,58,8.10
2008,10,21,00,59,8.10
2008,10,21,01,00,8.10
2008,10,21,01,01,8.10
2008,10,21,01,02,8.10
2008,10,21,01,03,8.10
2008,10,21,01,04,8.10
2008,10,21,01,05,8.10
2008,10,21,01,06,8.10
2008,10,21,01,07,8.10
2008,10,21,01,08,8.10
2008,10,21,01,09,8.10
2008,10,21,01,10,8.10
2008,10,21,01,11,8.10
2008,10,21,01,12,8.00
2008,10,21,01,13,8.00
2008,10,21,01,14,8.00
2008,10,21,01,15,7.90
2008,10,21,01,16,7.90
2008,10,21,01,17,7.90
2008,10,21,01,18,7.90
2008,10,21,01,19,7.80
2008,10,21,01,20,7.80
2008,10,21,01,21,7.80
2008,10,21,01,22,7.80
2008,10,21,01,23,7.70
2008,10,21,01,24,7.70
2008,10,21,01,25,7.70
2008,10,21,01,26,7.70
2008,10,21,01,27,7.70
2008,10,21,01,28,7.70
2008,10,21,01,29,7.70
2008,10,21,01,30,7.70
2008,10,21,01,31,7.70
2008,10,21,01,32,7.70
2008,10,21,01,33,7.70
2008,10,21,01,34,7.80
2008,10,21,01,35,7.80
2008,10,21,01,36,7.80
2008,10,21,01,37,7.90
2008,10,21,01,38,7.90
2008,10,21,01,39,7.90
2008,10,21,01,40,8.00
2008,10,21,01,41,8.00
2008,10,21,01,42,8.00
2008,10,21,01,43,8.00
2008,10,21,01,44,8.00
2008,10,21,01,45,8.00
2008,10,21,01,46,8.00
2008,10,21,01,47,8.00
2008,10,21,01,48,8.00
2008,10,21,01,49,8.00
2008,10,21,01,50,8.00
2008,10,21,01,51,8.00
2008,10,21,01,52,8.00
2008,10,21,01,53,8.00
2008,10,21,01,54,8.00
2008,10,21,01,55,8.00
2008,10,21,01,56,8.00
2008,10,21,01,57,8.00
2008,10,21,01,58,8.00
2008,10,21,01,59,8.00
2008,10,21,02,00,7.90
2008,10,21,02,01,7.90
2008,10,21,02,02,7.90
2008,10,21,02,03,7.90
2008,10,21,02,04,7.90
2008,10,21,02,05,7.80
2008,10,21,02,06,7.80
2008,10,21,02,07,7.80
2008,10,21,02,08,7.80
2008,10,21,02,09,7.70
2008,10,21,02,10,7.70
2008,10,21,02,11,7.70
2008,10,21,02,12,7.70
2008,10,21,02,13,7.60
2008,10,21,02,14,7.60
2008,10,21,02,15,7.60
2008,10,21,02,16,7.60
2008,10,21,02,17,7.50
2008,10,21,02,18,7.50
2008,10,21,02,19,7.40
2008,10,21,02,20,7.40
2008,10,21,02,21,7.40
2008,10,21,02,22,7.30
2008,10,21,02,23,7.30
2008,10,21,02,24,7.20
2008,10,21,02,25,7.10
2008,10,21,02,26,7.10
2008,10,21,02,27,7.00
2008,10,21,02,28,6.90
2008,10,21,02,29,6.90
2008,10,21,02,30,6.80
2008,10,21,02,31,6.80
2008,10,21,02,32,6.70
2008,10,21,02,33,6.70
2008,10,21,02,34,6.60
2008,10,21,02,35,6.60
2008,10,21,02,36,6.60
2008,10,21,02,37,6.50
2008,10,21,02,38,6.50
2008,10,21,02,39,6.50
2008,10,21,02,40,6.40
2008,10,21,02,41,6.40
2008,10,21,02,42,6.30
2008,10,21,02,43,6.30
2008,10,21,02,44,6.30
2008,10,21,02,45,6.30
2008,10,21,02,46,6.20
2008,10,21,02,47,6.20
2008,10,21,02,48,6.20
2008,10,21,02,49,6.20
2008,10,21,02,50,6.10
2008,10,21,02,51,6.10
2008,10,21,02,52,6.10
2008,10,21,02,53,6.10
2008,10,21,02,54,6.10
2008,10,21,02,55,6.10
2008,10,21,02,56,6.10
2008,10,21,02,57,6.10
2008,10,21,02,58,6.20
2008,10,21,02,59,6.20
2008,10,21,03,00,6.20
2008,10,21,03,01,6.30
2008,10,21,03,02,6.30
2008,10,21,03,03,6.30
2008,10,21,03,04,6.40
2008,10,21,03,05,6.40
2008,10,21,03,06,6.40
2008,10,21,03,07,6.40
2008,10,21,03,08,6.40
2008,10,21,03,09,6.40
2008,10,21,03,10,6.40
2008,10,21,03,11,6.50
2008,10,21,03,12,6.50
2008,10,21,03,13,6.50
2008,10,21,03,14,6.50
2008,10,21,03,15,6.50
2008,10,21,03,16,6.60
2008,10,21,03,17,6.60
2008,10,21,03,18,6.60
2008,10,21,03,19,6.60
2008,10,21,03,20,6.60
2008,10,21,03,21,6.60
2008,10,21,03,22,6.60
2008,10,21,03,23,6.60
2008,10,21,03,24,6.50
2008,10,21,03,25,6.50
2008,10,21,03,26,6.40
2008,10,21,03,27,6.40
2008,10,21,03,28,6.30
2008,10,21,03,29,6.30
2008,10,21,03,30,6.30
2008,10,21,03,31,6.20
2008,10,21,03,32,6.20
2008,10,21,03,33,6.20
2008,10,21,03,34,6.30
2008,10,21,03,35,6.30
2008,10,21,03,36,6.30
2008,10,21,03,37,6.40
2008,10,21,03,38,6.40
2008,10,21,03,39,6.40
2008,10,21,03,40,6.40
2008,10,21,03,41,6.40
2008,10,21,03,42,6.40
2008,10,21,03,43,6.40
2008,10,21,03,44,6.40
2008,10,21,03,45,6.40
2008,10,21,03,46,6.40
2008,10,21,03,47,6.40
2008,10,21,03,48,6.40
2008,10,21,03,49,6.40
2008,10,21,03,50,6.40
2008,10,21,03,51,6.40
2008,10,21,03,52,6.40
2008,10,21,03,53,6.40
2008,10,21,03,54,6.40
2008,10,21,03,55,6.40
2008,10,21,03,56,6.50
2008,10,21,03,57,6.50
2008,10,21,03,58,6.50
2008,10,21,03,59,6.50
2008,10,21,04,00,6.50
2008,10,21,04,01,6.50
2008,10,21,04,02,6.50
2008,10,21,04,03,6.40
2008,10,21,04,04,6.40
2008,10,21,04,31,5.20
2008,10,21,04,57,4.90
2008,10,21,05,13,4.60
2008,10,21,05,39,3.90
2008,10,21,05,54,4.20
2008,10,21,05,55,4.20
2008,10,21,05,56,4.30
2008,10,21,05,57,4.30
2008,10,21,05,58,4.40
2008,10,21,05,59,4.50
2008,10,21,06,00,4.50
2008,10,21,06,01,4.60
2008,10,21,06,02,4.70
2008,10,21,06,03,4.70
2008,10,21,06,04,4.70
2008,10,21,06,05,4.70
2008,10,21,06,06,4.70
2008,10,21,06,07,4.70
2008,10,21,06,08,4.70
2008,10,21,06,09,4.60
2008,10,21,06,10,4.60
2008,10,21,06,11,4.60
2008,10,21,06,12,4.50
2008,10,21,06,13,4.50
2008,10,21,06,14,4.40
2008,10,21,06,15,4.40
2008,10,21,06,16,4.40
2008,10,21,06,17,4.40
2008,10,21,06,18,4.40
2008,10,21,06,19,4.30
2008,10,21,06,20,4.30
2008,10,21,06,21,4.20
2008,10,21,06,22,4.10
2008,10,21,06,23,4.10
2008,10,21,06,24,4.00
2008,10,21,06,25,4.00
2008,10,21,06,26,3.90
2008,10,21,06,27,3.90
2008,10,21,06,28,3.90
2008,10,21,06,29,3.90
2008,10,21,06,30,3.90
2008,10,21,06,31,3.90
2008,10,21,06,32,3.90
2008,10,21,06,33,3.90
2008,10,21,06,34,3.90
2008,10,21,06,35,3.90
2008,10,21,06,36,3.80
2008,10,21,06,37,3.80
2008,10,21,06,38,3.80
2008,10,21,06,39,3.80
2008,10,21,06,40,3.80
2008,10,21,06,41,3.80
2008,10,21,06,42,3.80
2008,10,21,06,43,3.80
2008,10,21,06,44,3.80
2008,10,21,06,45,3.80
2008,10,21,06,46,3.80
2008,10,21,06,47,3.80
2008,10,21,06,48,3.80
2008,10,21,06,49,3.80
2008,10,21,06,50,3.80
2008,10,21,06,51,3.80
2008,10,21,06,52,3.80
2008,10,21,06,53,3.80
2008,10,21,06,54,3.70
2008,10,21,06,55,3.70
2008,10,21,06,56,3.70
2008,10,21,06,57,3.60
2008,10,21,06,58,3.60
2008,10,21,06,59,3.60
2008,10,21,07,00,3.60
2008,10,21,07,01,3.60
2008,10,21,07,02,3.70
2008,10,21,07,03,3.70
2008,10,21,07,04,3.70
2008,10,21,07,05,3.70
2008,10,21,07,06,3.70
2008,10,21,07,07,3.70
2008,10,21,07,08,3.70
2008,10,21,07,09,3.70
2008,10,21,07,10,3.70
2008,10,21,07,11,3.70
2008,10,21,07,12,3.70
2008,10,21,07,13,3.60
2008,10,21,07,14,3.60
2008,10,21,07,15,3.60
2008,10,21,07,16,3.50
2008,10,21,07,17,3.50
2008,10,21,07,18,3.50
2008,10,21,07,19,3.50
2008,10,21,07,20,3.50
2008,10,21,07,21,3.50
2008,10,21,07,22,3.50
2008,10,21,07,23,3.50
2008,10,21,07,24,3.60
2008,10,21,07,25,3.60
2008,10,21,07,26,3.60
2008,10,21,07,27,3.60
2008,10,21,07,28,3.60
2008,10,21,07,29,3.60
2008,10,21,07,30,3.60
2008,10,21,07,31,3.70
2008,10,21,07,32,3.70
2008,10,21,07,33,3.70
2008,10,21,07,34,3.70
2008,10,21,07,35,3.70
2008,10,21,07,36,3.60
2008,10,21,07,37,3.60
2008,10,21,07,38,3.60
2008,10,21,07,39,3.60
2008,10,21,07,40,3.60
2008,10,21,07,41,3.60
2008,10,21,07,42,3.60
2008,10,21,07,43,3.60
2008,10,21,07,44,3.50
2008,10,21,07,45,3.50
2008,10,21,07,46,3.50
2008,10,21,07,47,3.50
2008,10,21,07,48,3.50
2008,10,21,07,49,3.50
2008,10,21,07,50,3.50
2008,10,21,07,51,3.50
2008,10,21,07,52,3.50
2008,10,21,07,53,3.40
2008,10,21,07,54,3.40
2008,10,21,07,55,3.40
2008,10,21,07,56,3.40
2008,10,21,07,57,3.40
2008,10,21,07,58,3.40
2008,10,21,07,59,3.50
2008,10,21,08,00,3.50
2008,10,21,08,01,3.50
2008,10,21,08,02,3.50
2008,10,21,08,03,3.60
2008,10,21,08,04,3.60
2008,10,21,08,05,3.60
2008,10,21,08,06,3.60
2008,10,21,08,07,3.60
2008,10,21,08,08,3.70
2008,10,21,08,09,3.70
2008,10,21,08,10,3.70
2008,10,21,08,11,3.70
2008,10,21,08,12,3.70
2008,10,21,08,13,3.80
2008,10,21,08,14,3.80
2008,10,21,08,15,3.80
2008,10,21,08,16,3.80
2008,10,21,08,17,3.90
2008,10,21,08,18,3.90
2008,10,21,08,19,3.90
2008,10,21,08,20,4.00
2008,10,21,08,21,4.00
2008,10,21,08,22,4.10
2008,10,21,08,23,4.10
2008,10,21,08,24,4.20
2008,10,21,08,25,4.20
2008,10,21,08,26,4.20
2008,10,21,08,27,4.30
2008,10,21,08,28,4.30
2008,10,21,08,29,4.30
2008,10,21,08,30,4.40
2008,10,21,08,31,4.40
2008,10,21,08,32,4.50
2008,10,21,08,33,4.60
2008,10,21,08,34,4.60
2008,10,21,08,35,4.60
2008,10,21,08,36,4.70
2008,10,21,08,37,4.70
2008,10,21,08,38,4.70
2008,10,21,08,39,4.80
2008,10,21,08,40,4.80
2008,10,21,08,41,4.80
2008,10,21,08,42,4.90
2008,10,21,08,43,4.90
2008,10,21,08,44,5.00
2008,10,21,08,45,5.00
2008,10,21,08,46,5.10
2008,10,21,08,47,5.10
2008,10,21,08,48,5.20
2008,10,21,08,49,5.20
2008,10,21,08,50,5.20
2008,10,21,08,51,5.20
2008,10,21,08,52,5.30
2008,10,21,08,53,5.30
2008,10,21,08,54,5.30
2008,10,21,08,55,5.40
2008,10,21,08,56,5.40
2008,10,21,08,57,5.50
2008,10,21,08,58,5.50
2008,10,21,08,59,5.60
2008,10,21,09,00,5.60
2008,10,21,09,01,5.70
2008,10,21,09,02,5.70
2008,10,21,09,03,5.70
2008,10,21,09,04,5.80
2008,10,21,09,05,5.80
2008,10,21,09,06,5.90
2008,10,21,09,07,5.90
2008,10,21,09,08,6.00
2008,10,21,09,09,6.10
2008,10,21,09,10,6.10
2008,10,21,09,11,6.20
2008,10,21,09,12,6.30
2008,10,21,09,13,6.40
2008,10,21,09,14,6.40
2008,10,21,09,15,6.50
2008,10,21,09,16,6.70
2008,10,21,09,17,6.70
2008,10,21,09,18,6.90
2008,10,21,09,19,7.20
2008,10,21,09,20,7.40
2008,10,21,09,21,7.60
2008,10,21,09,22,7.80
2008,10,21,09,23,7.90
2008,10,21,09,24,8.10
2008,10,21,09,25,8.20
2008,10,21,09,26,8.30
2008,10,21,09,27,8.40
2008,10,21,09,28,8.50
2008,10,21,09,29,8.60
2008,10,21,09,30,8.70
2008,10,21,09,31,8.80
2008,10,21,09,32,8.90
2008,10,21,09,33,9.00
2008,10,21,09,34,9.10
2008,10,21,09,35,9.20
2008,10,21,09,36,9.20
2008,10,21,09,37,9.20
2008,10,21,09,38,9.30
2008,10,21,09,39,9.30
2008,10,21,09,40,9.40
2008,10,21,09,41,9.40
2008,10,21,09,42,9.40
2008,10,21,09,43,9.40
2008,10,21,09,44,9.50
2008,10,21,09,45,9.60
2008,10,21,09,46,9.60
2008,10,21,09,47,9.60
2008,10,21,09,48,9.70
2008,10,21,09,49,9.70
2008,10,21,09,50,9.80
2008,10,21,09,51,9.80
2008,10,21,09,52,9.80
2008,10,21,09,53,9.80
2008,10,21,09,54,9.80
2008,10,21,09,55,9.80
2008,10,21,09,56,9.80
2008,10,21,09,57,9.80
2008,10,21,09,58,9.90
2008,10,21,09,59,9.90
2008,10,21,10,00,9.90
2008,10,21,10,01,9.90
2008,10,21,10,02,10.00
2008,10,21,10,03,10.00
2008,10,21,10,04,10.00
2008,10,21,10,05,10.00
2008,10,21,10,06,10.10
2008,10,21,10,07,10.10
2008,10,21,10,08,10.10
2008,10,21,10,09,10.20
2008,10,21,10,10,10.10
2008,10,21,10,11,10.10
2008,10,21,10,12,10.10
2008,10,21,10,13,10.10
2008,10,21,10,14,10.00
2008,10,21,10,15,10.00
2008,10,21,10,16,9.90
2008,10,21,10,17,9.80
2008,10,21,10,18,9.80
2008,10,21,10,19,9.70
2008,10,21,10,20,9.70
2008,10,21,10,21,9.70
2008,10,21,10,22,9.80
2008,10,21,10,23,9.80
2008,10,21,10,24,9.90
2008,10,21,10,25,10.00
2008,10,21,10,26,10.00
2008,10,21,10,27,10.10
2008,10,21,10,28,10.20
2008,10,21,10,29,10.20
2008,10,21,10,30,10.30
2008,10,21,10,31,10.40
2008,10,21,10,32,10.40
2008,10,21,10,33,10.50
2008,10,21,10,34,10.60
2008,10,21,10,35,10.60
2008,10,21,10,36,10.60
2008,10,21,10,37,10.60
2008,10,21,10,38,10.60
2008,10,21,10,39,10.60
2008,10,21,10,40,10.70
2008,10,21,10,41,10.70
2008,10,21,10,42,10.70
2008,10,21,10,43,10.70
2008,10,21,10,44,10.70
2008,10,21,10,45,10.70
2008,10,21,10,46,10.70
2008,10,21,10,47,10.80
2008,10,21,10,48,10.80
2008,10,21,10,49,10.90
2008,10,21,10,50,10.90
2008,10,21,10,51,10.90
2008,10,21,10,52,10.90
2008,10,21,10,53,10.90
2008,10,21,10,54,10.80
2008,10,21,10,55,10.80
2008,10,21,10,56,10.60
2008,10,21,10,57,10.50
2008,10,21,10,58,10.30
2008,10,21,10,59,10.20
2008,10,21,11,00,10.10
2008,10,21,11,01,9.90
2008,10,21,11,02,9.80
2008,10,21,11,03,9.80
2008,10,21,11,04,9.70
2008,10,21,11,05,9.70
2008,10,21,11,06,9.70
2008,10,21,11,07,9.60
2008,10,21,11,08,9.60
2008,10,21,11,09,9.60
2008,10,21,11,10,9.60
2008,10,21,11,11,9.60
2008,10,21,11,12,9.60
2008,10,21,11,13,9.60
2008,10,21,11,14,9.60
2008,10,21,11,15,9.70
2008,10,21,11,16,9.70
2008,10,21,11,17,9.60
2008,10,21,11,18,9.60
2008,10,21,11,19,9.60
2008,10,21,11,20,9.70
2008,10,21,11,21,9.70
2008,10,21,11,22,9.80
2008,10,21,11,23,9.80
2008,10,21,11,24,9.80
2008,10,21,11,25,9.90
2008,10,21,11,26,9.90
2008,10,21,11,27,9.90
2008,10,21,11,28,9.90
2008,10,21,11,29,9.90
2008,10,21,11,30,9.90
2008,10,21,11,31,9.90
2008,10,21,11,32,9.90
2008,10,21,11,33,9.90
2008,10,21,11,34,9.90
2008,10,21,11,35,9.80
2008,10,21,11,36,9.80
2008,10,21,11,37,9.80
2008,10,21,11,38,9.70
2008,10,21,11,39,9.70
2008,10,21,11,40,9.70
2008,10,21,11,41,9.80
2008,10,21,11,42,9.80
2008,10,21,11,43,9.90
2008,10,21,11,44,9.90
2008,10,21,11,45,9.90
2008,10,21,11,46,9.90
2008,10,21,11,47,9.90
2008,10,21,11,48,9.90
2008,10,21,11,49,9.90
2008,10,21,11,50,9.90
2008,10,21,11,51,9.90
2008,10,21,11,52,9.90
2008,10,21,11,53,9.90
2008,10,21,11,54,9.90
2008,10,21,11,55,9.90
2008,10,21,11,56,9.80
2008,10,21,11,57,9.80
2008,10,21,11,58,9.70
2008,10,21,11,59,9.60
2008,10,21,12,00,9.60
2008,10,21,12,01,9.60
2008,10,21,12,02,9.50
2008,10,21,12,03,9.40
2008,10,21,12,04,9.40
2008,10,21,12,05,9.40
2008,10,21,12,06,9.40
2008,10,21,12,07,9.40
2008,10,21,12,08,9.40
2008,10,21,12,09,9.40
2008,10,21,12,10,9.50
2008,10,21,12,11,9.60
2008,10,21,12,12,9.60
2008,10,21,12,13,9.70
2008,10,21,12,14,9.70
2008,10,21,12,15,9.80
2008,10,21,12,16,9.80
2008,10,21,12,17,9.80
2008,10,21,12,18,9.70
2008,10,21,12,19,9.60
2008,10,21,12,20,9.60
2008,10,21,12,21,9.50
2008,10,21,12,22,9.40
2008,10,21,12,23,9.40
2008,10,21,12,24,9.30
2008,10,21,12,25,9.30
2008,10,21,12,26,9.30
2008,10,21,12,27,9.20
2008,10,21,12,28,9.20
2008,10,21,12,29,9.20
2008,10,21,12,30,9.20
2008,10,21,12,31,9.20
2008,10,21,12,32,9.20
2008,10,21,12,33,9.20
2008,10,21,12,34,9.20
2008,10,21,12,35,9.20
2008,10,21,12,36,9.20
2008,10,21,12,37,9.20
2008,10,21,12,38,9.10
2008,10,21,12,39,9.20
2008,10,21,12,40,9.20
2008,10,21,12,41,9.20
2008,10,21,12,42,9.20
2008,10,21,12,43,9.20
2008,10,21,12,44,9.20
2008,10,21,12,45,9.30
2008,10,21,12,46,9.30
2008,10,21,12,47,9.30
2008,10,21,12,48,9.30
2008,10,21,12,49,9.30
2008,10,21,12,50,9.40
2008,10,21,12,51,9.40
2008,10,21,12,52,9.40
2008,10,21,12,53,9.30
2008,10,21,12,54,9.30
2008,10,21,12,55,9.40
2008,10,21,12,56,9.40
2008,10,21,12,57,9.40
2008,10,21,12,58,9.40
2008,10,21,12,59,9.40
2008,10,21,13,00,9.40
2008,10,21,13,01,9.50
2008,10,21,13,02,9.60
2008,10,21,13,03,9.60
2008,10,21,13,04,9.70
2008,10,21,13,05,9.80
2008,10,21,13,06,9.90
2008,10,21,13,07,9.90
2008,10,21,13,08,9.80
2008,10,21,13,09,9.80
2008,10,21,13,10,9.70
2008,10,21,13,11,9.60
2008,10,21,13,12,9.60
2008,10,21,13,13,9.60
2008,10,21,13,14,9.70
2008,10,21,13,15,9.80
2008,10,21,13,16,9.80
2008,10,21,13,17,9.80
2008,10,21,13,18,9.90
2008,10,21,13,19,9.90
2008,10,21,13,20,10.00
2008,10,21,13,21,10.00
2008,10,21,13,22,10.10
2008,10,21,13,23,10.00
2008,10,21,13,24,9.90
2008,10,21,13,25,9.80
2008,10,21,13,26,9.70
2008,10,21,13,27,9.70
2008,10,21,13,28,9.80
2008,10,21,13,29,9.70
2008,10,21,13,30,9.70
2008,10,21,13,31,9.80
2008,10,21,13,32,9.80
2008,10,21,13,33,9.80
2008,10,21,13,34,9.80
2008,10,21,13,35,9.70
2008,10,21,13,36,9.70
2008,10,21,13,37,9.80
2008,10,21,13,38,9.80
2008,10,21,13,39,9.90
2008,10,21,13,40,10.00
2008,10,21,13,41,10.10
2008,10,21,13,42,10.20
2008,10,21,13,43,10.20
2008,10,21,13,44,10.20
2008,10,21,13,45,10.20
2008,10,21,13,46,10.20
2008,10,21,13,47,10.20
2008,10,21,13,48,10.20
2008,10,21,13,49,10.20
2008,10,21,13,50,10.20
2008,10,21,13,51,10.30
2008,10,21,13,52,10.30
2008,10,21,13,53,10.30
2008,10,21,13,54,10.20
2008,10,21,13,55,10.10
2008,10,21,13,56,10.10
2008,10,21,13,57,10.00
2008,10,21,13,58,10.10
2008,10,21,13,59,10.10
2008,10,21,14,00,10.00
2008,10,21,14,01,9.90
2008,10,21,14,02,9.90
2008,10,21,14,03,9.80
2008,10,21,14,04,9.80
2008,10,21,14,05,9.80
2008,10,21,14,06,9.90
2008,10,21,14,07,9.90
2008,10,21,14,08,10.00
2008,10,21,14,09,10.10
2008,10,21,14,10,10.10
2008,10,21,14,11,10.20
2008,10,21,14,12,10.10
2008,10,21,14,13,10.00
2008,10,21,14,14,9.90
2008,10,21,14,15,9.90
2008,10,21,14,16,9.80
2008,10,21,14,17,9.80
2008,10,21,14,18,9.90
2008,10,21,14,19,9.90
2008,10,21,14,20,10.00
2008,10,21,14,21,10.00
2008,10,21,14,22,10.10
2008,10,21,14,23,10.10
2008,10,21,14,24,10.00
2008,10,21,14,25,9.90
2008,10,21,14,26,9.80
2008,10,21,14,27,9.80
2008,10,21,14,28,9.80
2008,10,21,14,29,9.80
2008,10,21,14,30,9.70
2008,10,21,14,31,9.70
2008,10,21,14,32,9.60
2008,10,21,14,33,9.60
2008,10,21,14,34,9.60
2008,10,21,14,35,9.60
2008,10,21,14,36,9.60
2008,10,21,14,37,9.60
2008,10,21,14,38,9.60
2008,10,21,14,39,9.60
2008,10,21,14,40,9.70
2008,10,21,14,41,9.70
2008,10,21,14,42,9.70
2008,10,21,14,43,9.80
2008,10,21,14,44,9.80
2008,10,21,14,45,9.80
2008,10,21,14,46,9.80
2008,10,21,14,47,9.80
2008,10,21,14,48,9.80
2008,10,21,14,49,9.80
2008,10,21,14,50,9.80
2008,10,21,14,51,9.90
2008,10,21,14,52,9.90
2008,10,21,14,53,9.90
2008,10,21,14,54,9.90
2008,10,21,14,55,9.90
2008,10,21,14,56,9.90
2008,10,21,14,57,9.90
2008,10,21,14,58,9.80
2008,10,21,14,59,9.80
2008,10,21,15,00,9.80
2008,10,21,15,01,9.80
2008,10,21,15,02,9.80
2008,10,21,15,03,9.80
2008,10,21,15,04,9.80
2008,10,21,15,05,9.80
2008,10,21,15,06,9.80
2008,10,21,15,07,9.80
2008,10,21,15,08,9.80
2008,10,21,15,09,9.80
2008,10,21,15,10,9.70
2008,10,21,15,11,9.80
2008,10,21,15,12,9.80
2008,10,21,15,13,9.80
2008,10,21,15,14,9.80
2008,10,21,15,15,9.80
2008,10,21,15,16,9.80
2008,10,21,15,17,9.80
2008,10,21,15,18,9.80
2008,10,21,15,19,9.80
2008,10,21,15,20,9.80
2008,10,21,15,21,9.80
2008,10,21,15,22,9.80
2008,10,21,15,23,9.80
2008,10,21,15,24,9.90
2008,10,21,15,25,9.90
2008,10,21,15,26,9.90
2008,10,21,15,27,9.90
2008,10,21,15,28,9.90
2008,10,21,15,29,9.90
2008,10,21,15,30,9.90
2008,10,21,15,31,9.90
2008,10,21,15,32,9.90
2008,10,21,15,33,9.90
2008,10,21,15,34,9.90
2008,10,21,15,35,9.90
2008,10,21,15,36,9.90
2008,10,21,15,37,9.90
2008,10,21,15,38,9.90
2008,10,21,15,39,9.90
2008,10,21,15,40,9.90
2008,10,21,15,41,9.90
2008,10,21,15,42,9.90
2008,10,21,15,43,9.90
2008,10,21,15,44,9.90
2008,10,21,15,45,9.90
2008,10,21,15,46,9.90
2008,10,21,15,47,9.90
2008,10,21,15,48,9.90
2008,10,21,15,49,9.90
2008,10,21,15,50,9.90
2008,10,21,15,51,9.90
2008,10,21,15,52,9.80
2008,10,21,15,53,9.80
2008,10,21,15,54,9.80
2008,10,21,15,55,9.90
2008,10,21,15,56,9.90
2008,10,21,15,57,9.90
2008,10,21,15,58,9.90
2008,10,21,15,59,9.90
2008,10,21,16,00,9.90
2008,10,21,16,01,9.90
2008,10,21,16,02,9.90
2008,10,21,16,03,9.90
2008,10,21,16,04,9.90
2008,10,21,16,05,9.90
2008,10,21,16,06,9.90
2008,10,21,16,07,9.90
2008,10,21,16,08,9.90
2008,10,21,16,09,9.90
2008,10,21,16,10,9.90
2008,10,21,16,11,9.90
2008,10,21,16,12,9.90
2008,10,21,16,13,9.90
2008,10,21,16,14,9.90
2008,10,21,16,15,9.90
2008,10,21,16,16,9.90
2008,10,21,16,17,10.00
2008,10,21,16,18,10.00
2008,10,21,16,19,10.10
2008,10,21,16,20,10.10
2008,10,21,16,21,10.10
2008,10,21,16,22,10.10
2008,10,21,16,23,10.10
2008,10,21,16,24,10.20
2008,10,21,16,25,10.20
2008,10,21,16,26,10.20
2008,10,21,16,27,10.20
2008,10,21,16,28,10.20
2008,10,21,16,29,10.20
2008,10,21,16,30,10.30
2008,10,21,16,31,10.30
2008,10,21,16,32,10.30
2008,10,21,16,33,10.40
2008,10,21,16,34,10.40
2008,10,21,16,35,10.50
2008,10,21,16,36,10.50
2008,10,21,16,37,10.60
2008,10,21,16,38,10.60
2008,10,21,16,39,10.60
2008,10,21,16,40,10.60
2008,10,21,16,41,10.50
2008,10,21,16,42,10.50
2008,10,21,16,43,10.40
2008,10,21,16,44,10.40
2008,10,21,16,45,10.30
2008,10,21,16,46,10.30
2008,10,21,16,47,10.30
2008,10,21,16,48,10.30
2008,10,21,16,49,10.20
2008,10,21,16,50,10.20
2008,10,21,16,51,10.20
2008,10,21,16,52,10.20
2008,10,21,16,53,10.20
2008,10,21,16,54,10.20
2008,10,21,16,55,10.20
2008,10,21,16,56,10.20
2008,10,21,16,57,10.20
2008,10,21,16,58,10.20
2008,10,21,16,59,10.20
2008,10,21,17,00,10.20
2008,10,21,17,01,10.20
2008,10,21,17,02,10.20
2008,10,21,17,03,10.20
2008,10,21,17,04,10.10
2008,10,21,17,05,10.10
2008,10,21,17,06,10.10
2008,10,21,17,07,10.10
2008,10,21,17,08,10.00
2008,10,21,17,09,10.00
2008,10,21,17,10,10.00
2008,10,21,17,11,9.90
2008,10,21,17,12,9.90
2008,10,21,17,13,9.90
2008,10,21,17,14,9.90
2008,10,21,17,15,9.90
2008,10,21,17,16,9.90
2008,10,21,17,17,9.90
2008,10,21,17,18,9.90
2008,10,21,17,19,9.90
2008,10,21,17,20,9.90
2008,10,21,17,21,9.90
2008,10,21,17,22,9.90
2008,10,21,17,23,9.90
2008,10,21,17,24,9.90
2008,10,21,17,25,10.00
2008,10,21,17,26,10.00
2008,10,21,17,27,10.00
2008,10,21,17,28,10.00
2008,10,21,17,29,10.00
2008,10,21,17,30,10.00
2008,10,21,17,31,10.00
2008,10,21,17,32,10.00
2008,10,21,17,33,10.00
2008,10,21,17,34,10.00
2008,10,21,17,35,10.00
2008,10,21,17,36,10.00
2008,10,21,17,37,10.10
2008,10,21,17,38,10.10
2008,10,21,17,39,10.10
2008,10,21,17,40,10.10
2008,10,21,17,41,10.10
2008,10,21,17,42,10.10
2008,10,21,17,43,10.10
2008,10,21,17,44,10.10
2008,10,21,17,45,10.10
2008,10,21,17,46,10.00
2008,10,21,17,47,10.00
2008,10,21,17,48,10.00
2008,10,21,17,49,10.00
2008,10,21,17,50,10.00
2008,10,21,17,51,10.00
2008,10,21,17,52,9.90
2008,10,21,17,53,9.90
2008,10,21,17,54,9.90
2008,10,21,17,55,9.90
2008,10,21,17,56,9.90
2008,10,21,17,57,9.90
2008,10,21,17,58,9.90
2008,10,21,17,59,9.90
2008,10,21,18,00,9.90
2008,10,21,18,01,9.90
2008,10,21,18,02,9.90
2008,10,21,18,03,9.90
2008,10,21,18,04,9.90
2008,10,21,18,05,9.90
2008,10,21,18,06,9.90
2008,10,21,18,07,9.90
2008,10,21,18,08,9.90
2008,10,21,18,09,9.90
2008,10,21,18,10,9.90
2008,10,21,18,11,9.90
2008,10,21,18,12,9.90
2008,10,21,18,13,9.90
2008,10,21,18,14,9.90
2008,10,21,18,15,9.90
2008,10,21,18,16,9.90
2008,10,21,18,17,9.90
2008,10,21,18,18,9.90
2008,10,21,18,19,9.90
2008,10,21,18,20,9.90
2008,10,21,18,21,9.90
2008,10,21,18,22,9.80
2008,10,21,18,23,9.80
2008,10,21,18,24,9.80
2008,10,21,18,25,9.80
2008,10,21,18,26,9.80
2008,10,21,18,27,9.80
2008,10,21,18,28,9.80
2008,10,21,18,29,9.80
2008,10,21,18,30,9.80
2008,10,21,18,31,9.80
2008,10,21,18,32,9.80
2008,10,21,18,33,9.80
2008,10,21,18,34,9.80
2008,10,21,18,35,9.80
2008,10,21,18,36,9.80
2008,10,21,18,37,9.80
2008,10,21,18,38,9.80
2008,10,21,18,39,9.70
2008,10,21,18,40,9.70
2008,10,21,18,41,9.70
2008,10,21,18,42,9.70
2008,10,21,18,43,9.70
2008,10,21,18,44,9.70
2008,10,21,18,45,9.70
2008,10,21,18,46,9.70
2008,10,21,18,47,9.70
2008,10,21,18,48,9.70
2008,10,21,18,49,9.70
2008,10,21,18,50,9.70
2008,10,21,18,51,9.70
2008,10,21,18,52,9.70
2008,10,21,18,53,9.70
2008,10,21,18,54,9.70
2008,10,21,18,55,9.70
2008,10,21,18,56,9.70
2008,10,21,18,57,9.70
2008,10,21,18,58,9.70
2008,10,21,18,59,9.70
2008,10,21,19,00,9.70
2008,10,21,19,01,9.70
2008,10,21,19,02,9.70
2008,10,21,19,03,9.70
2008,10,21,19,04,9.70
2008,10,21,19,05,9.70
2008,10,21,19,06,9.70
2008,10,21,19,07,9.70
2008,10,21,19,08,9.70
2008,10,21,19,09,9.70
2008,10,21,19,10,9.70
2008,10,21,19,11,9.70
2008,10,21,19,12,9.70
2008,10,21,19,13,9.70
2008,10,21,19,14,9.70
2008,10,21,19,15,9.70
2008,10,21,19,16,9.70
2008,10,21,19,17,9.70
2008,10,21,19,18,9.70
2008,10,21,19,19,9.70
2008,10,21,19,20,9.70
2008,10,21,19,21,9.70
2008,10,21,19,22,9.70
2008,10,21,19,23,9.70
2008,10,21,19,24,9.70
2008,10,21,19,25,9.70
2008,10,21,19,26,9.70
2008,10,21,19,27,9.70
2008,10,21,19,28,9.70
2008,10,21,19,29,9.70
2008,10,21,19,30,9.60
2008,10,21,19,31,9.70
2008,10,21,19,32,9.70
2008,10,21,19,33,9.70
2008,10,21,19,34,9.70
2008,10,21,19,35,9.60
2008,10,21,19,36,9.70
2008,10,21,19,37,9.70
2008,10,21,19,38,9.70
2008,10,21,19,39,9.70
2008,10,21,19,40,9.70
2008,10,21,19,41,9.70
2008,10,21,19,42,9.70
2008,10,21,19,43,9.60
2008,10,21,19,44,9.60